[[{"header":{"parameterUnit":"m.s-1","parameterCategory":1,"la1":30.2991,"la2":30.254,"lo1":-89.0895,"lo2":-89.0444,"dx":0.0017,"dy":0.0017,"nx":28,"ny":28,"refTime":"2022-12-16T09:00:00:Z","depth":0,"parameterNumber":2,"parameterNumberName":"U-component_of_WINDS"},"data":[0,0,0,0,0,0,0,0,0,0,0,0,0,0,0,0,0,0,0,0,0,0,0,0,0,0,0,0,0,0,0,0,0,0,0,0,0,0,0,0,0,0,0,0,0,0,0,0,0,0,0,0,0,0,0,0,0,0,2.3534,2.3534,0,2.3575,2.3576,2.3576,2.3528,2.3526,2.3524,2.3522,2.3564,2.3566,2.3569,0,0,0,0,0,0,0,0,0,0,0,0,0,2.3411,2.3414,2.3534,2.3534,2.3535,2.3575,2.3576,2.3576,2.3528,2.3526,2.3523,2.3521,2.3563,2.3566,2.3569,0,0,0,0,0,0,0,0,0,0,0,0,0,2.346,2.3415,2.3534,2.3516,2.3514,2.3575,2.3576,2.3577,2.3528,2.3526,2.3523,2.352,2.3562,2.3566,2.357,2.365,0,0,2.3583,2.3585,0,0,0,0,0,0,0,0,2.3457,2.3465,2.3518,2.3517,2.3516,2.3544,2.3548,2.3601,2.3529,2.3523,2.3522,2.3519,2.3559,2.3563,2.3577,2.3652,2.3654,2.3583,2.3586,2.3587,2.3589,0,0,0,0,0,0,0,2.3454,2.3462,2.355,2.3519,2.3517,2.3505,2.3509,2.3558,2.3556,2.3523,2.352,2.3526,2.3558,2.3573,2.3578,2.3655,2.3583,2.3587,2.3589,2.3591,2.3798,2.38,0,0,0,0,0,0,2.3453,2.346,2.3549,2.3551,2.3479,2.3509,2.3514,2.3537,2.3555,2.3555,2.3528,2.3523,2.3567,2.3573,2.3579,2.3674,2.3587,2.3591,2.3594,2.3795,2.3798,2.3801,0,0,0,0,0,0,2.345,2.3461,2.3547,2.3505,2.3515,2.3514,2.3541,2.354,2.3555,2.3559,2.3558,2.3544,2.3565,2.3573,2.3633,2.3675,2.3593,2.3597,2.3791,2.3796,2.38,2.3865,0,0,0,0,0,0,2.3447,2.3461,2.3492,2.3506,2.3517,2.3601,2.3544,2.3542,2.3562,2.3556,2.3573,2.3573,2.3564,2.3627,2.3637,2.3679,2.36,2.3787,2.3793,2.3798,2.3859,2.3871,2.3882,0,0,0,0,0,2.3443,2.3508,2.3493,2.3504,2.3556,2.3604,2.361,2.3598,2.3566,2.3597,2.3599,2.3573,2.3669,2.3634,2.3645,2.3689,2.3785,2.3792,2.3798,2.3854,2.3869,2.3882,0,0,0,0,0,0,2.3498,2.351,2.3493,2.3565,2.3584,2.3595,2.3634,2.3614,2.3642,2.3635,2.3619,2.3623,2.3687,2.3693,2.3654,2.3767,2.3721,2.3731,2.376,2.3774,2.3785,2.3782,2.3604,0,0,0,0,0,2.3519,2.3557,2.3565,2.3628,2.3638,2.3634,2.3655,2.3644,2.3662,2.367,2.3677,2.3695,2.3729,2.3752,2.3784,2.386,2.3863,2.3896,2.3907,2.3916,2.3924,2.3965,2.3979,2.3823,2.3823,2.3823,0,0,2.3562,2.3573,2.3598,2.3639,2.3652,2.3692,2.3641,2.3685,2.3714,2.3676,2.3733,2.3739,2.3759,2.3827,2.3858,2.3835,2.3968,2.3925,2.3932,2.3935,2.3973,2.3988,2.4001,2.3828,2.3827,2.3826,0,0,2.366,2.3673,2.3726,2.3741,2.3761,2.3758,2.3771,2.3786,2.3788,2.3845,2.3818,2.3852,2.3911,2.3926,2.3942,2.4046,2.4023,2.4057,2.4115,2.4155,2.4167,2.4178,2.4215,2.4228,2.4065,2.4065,2.4065,0,2.3711,2.377,2.3756,2.3802,2.3821,2.3789,2.3843,2.3857,2.3887,2.39,2.3874,2.3948,2.3959,2.4031,2.4056,2.407,2.4084,2.4055,2.4166,2.4177,2.4187,2.4222,2.4236,2.4069,2.4068,2.4068,2.4068,0,2.3831,2.3873,2.3913,2.3943,2.3967,2.4016,2.401,2.4035,2.4022,2.4022,2.408,2.4092,2.4126,2.4142,2.413,2.4212,2.4197,2.4169,2.4123,2.4206,2.4239,2.4252,2.4075,2.4073,2.4072,2.4071,0,0,2.3966,2.3988,2.4003,2.4016,2.4036,2.4068,2.4116,2.4149,2.4171,2.4193,2.4232,2.4283,2.4258,2.4275,2.4264,2.4299,2.4381,2.4267,2.4267,2.4288,2.4471,2.4492,2.4508,2.4366,2.4368,2.437,2.447,0,2.4065,2.4149,2.4137,2.4218,2.4255,2.4225,2.4267,2.4284,2.4285,2.4317,2.4318,2.4354,2.4318,2.4328,2.4362,2.4364,2.4417,2.4357,2.4402,2.4404,2.4398,2.4525,2.4547,2.464,2.4482,2.4485,2.4486,0,2.4191,2.4218,2.4302,2.4316,2.4332,2.437,2.4399,2.443,2.4448,2.4446,2.4466,2.4449,2.4497,2.445,2.4515,2.4474,2.4492,2.4496,2.4499,2.4502,2.445,2.4532,2.467,2.4684,2.4506,2.4504,2.4503,0,2.4281,2.4338,2.4395,2.4407,2.4426,2.4453,2.4462,2.4477,2.4498,2.4523,2.4536,2.4567,2.4584,2.4608,2.4599,2.4566,2.4666,2.4618,2.4666,2.4666,2.4688,2.4687,2.4831,2.47,2.47,2.47,2.4699,0,2.4392,2.4445,2.4436,2.4471,2.4529,2.4516,2.4573,2.4578,2.4592,2.4628,2.4603,2.4637,2.4624,2.4657,2.465,2.4705,2.4713,2.4712,2.471,2.4715,2.4715,2.4726,2.4719,2.4703,2.4702,2.4702,2.4701,0,2.4502,2.4498,2.4559,2.4572,2.4576,2.4618,2.4628,2.4661,2.466,2.4706,2.4715,2.4714,2.4752,2.4745,2.4787,2.4782,2.4851,2.484,2.4845,2.4842,2.489,2.4885,2.5046,2.5066,2.4923,2.4924,2.4925,0,2.4574,2.4614,2.463,2.4652,2.4663,2.4699,2.472,2.4708,2.4731,2.4755,2.4785,2.482,2.4847,2.4908,2.4911,2.4942,2.4932,2.4986,2.4937,2.494,2.4933,2.493,2.4934,2.4996,2.4998,2.4999,2.5,0,2.4701,2.4697,2.4728,2.4759,2.4784,2.4808,2.4829,2.4848,2.4838,2.4865,2.4903,2.4924,2.4966,2.5001,2.5031,2.5039,2.5018,2.5016,2.5028,2.5033,2.5034,2.5034,2.4871,2.5012,2.5011,2.501,2.5009,2.5009,2.4794,2.4828,2.4844,2.488,2.4894,2.4915,2.4946,2.4949,2.4981,2.5015,2.5005,2.5048,2.5065,2.5102,2.5114,2.5147,2.5127,2.5145,2.515,2.5154,2.516,2.5029,2.5152,2.5152,2.5152,2.5151,2.5151,0,2.4919,2.4929,2.4961,2.4992,2.5019,2.4997,2.5019,2.5044,2.5082,2.51,2.5127,2.5171,2.5205,2.521,2.5242,2.5267,2.5258,2.5276,2.5274,2.5276,2.5176,2.5162,2.5283,2.5283,2.5283,2.5283,2.5283,2.5283,2.4988,2.5044,2.5042,2.5105,2.5113,2.5156,2.517,2.5188,2.5202,2.5252,2.528,2.5283,2.5296,2.5328,2.5358,2.5359,2.5371,2.5393,2.539,2.5296,2.5283,2.5271,2.5257,2.5396,2.5396,2.5486,2.5487,2.5488]},{"header":{"parameterUnit":"m.s-1","parameterCategory":1,"la1":30.2991,"la2":30.254,"lo1":-89.0895,"lo2":-89.0444,"dx":0.0017,"dy":0.0017,"nx":28,"ny":28,"refTime":"2022-12-16T09:00:00:Z","depth":0,"parameterNumber":3,"parameterNumberName":"V-component_of_WINDS"},"data":[0,0,0,0,0,0,0,0,0,0,0,0,0,0,0,0,0,0,0,0,0,0,0,0,0,0,0,0,0,0,0,0,0,0,0,0,0,0,0,0,0,0,0,0,0,0,0,0,0,0,0,0,0,0,0,0,0,0,-1.6183,-1.6184,0,-1.6323,-1.6324,-1.6326,-1.6355,-1.6354,-1.6353,-1.6352,-1.6496,-1.6501,-1.6506,0,0,0,0,0,0,0,0,0,0,0,0,0,-1.5943,-1.5947,-1.6183,-1.6184,-1.6186,-1.6322,-1.6324,-1.6326,-1.6355,-1.6354,-1.6353,-1.6351,-1.6495,-1.6501,-1.6506,0,0,0,0,0,0,0,0,0,0,0,0,0,-1.6061,-1.5948,-1.6182,-1.6217,-1.6222,-1.6322,-1.6324,-1.6327,-1.6355,-1.6354,-1.6352,-1.6351,-1.6493,-1.65,-1.6507,-1.6583,0,0,-1.6529,-1.6532,0,0,0,0,0,0,0,0,-1.6054,-1.607,-1.621,-1.6215,-1.622,-1.632,-1.6293,-1.6413,-1.6356,-1.6305,-1.6352,-1.635,-1.6439,-1.6451,-1.648,-1.659,-1.6596,-1.653,-1.6534,-1.6537,-1.6539,0,0,0,0,0,0,0,-1.6046,-1.6064,-1.6238,-1.6212,-1.6218,-1.6226,-1.6241,-1.6316,-1.6379,-1.6309,-1.6311,-1.6328,-1.6441,-1.6473,-1.6484,-1.6598,-1.653,-1.6536,-1.6541,-1.6543,-1.6779,-1.6781,0,0,0,0,0,0,-1.6032,-1.6057,-1.6234,-1.6242,-1.6132,-1.6232,-1.6249,-1.6289,-1.6378,-1.639,-1.6329,-1.6328,-1.6462,-1.6475,-1.6489,-1.6585,-1.6537,-1.6544,-1.6548,-1.6777,-1.6779,-1.6781,0,0,0,0,0,0,-1.6026,-1.6047,-1.6228,-1.615,-1.6174,-1.6238,-1.6283,-1.6293,-1.6325,-1.6393,-1.6405,-1.6349,-1.6461,-1.6479,-1.656,-1.659,-1.6547,-1.6554,-1.6775,-1.6778,-1.678,-1.6776,0,0,0,0,0,0,-1.6019,-1.6045,-1.6074,-1.6151,-1.6178,-1.6296,-1.6285,-1.6297,-1.6337,-1.6338,-1.6416,-1.6427,-1.6461,-1.6549,-1.6567,-1.6599,-1.656,-1.6772,-1.6776,-1.6779,-1.6774,-1.6778,-1.6782,0,0,0,0,0,-1.6011,-1.6067,-1.6075,-1.6096,-1.6216,-1.6297,-1.6313,-1.6351,-1.6339,-1.6369,-1.6414,-1.6425,-1.6584,-1.6557,-1.6578,-1.6612,-1.677,-1.6775,-1.6779,-1.6772,-1.6777,-1.6782,0,0,0,0,0,0,-1.5993,-1.6078,-1.6088,-1.6171,-1.6227,-1.6302,-1.6341,-1.6355,-1.6416,-1.6414,-1.6459,-1.6476,-1.6554,-1.6592,-1.656,-1.6691,-1.6677,-1.6685,-1.6664,-1.667,-1.6674,-1.6664,-1.6566,0,0,0,0,0,-1.5998,-1.6057,-1.6129,-1.6195,-1.6223,-1.6277,-1.6314,-1.6338,-1.6398,-1.6422,-1.6472,-1.653,-1.6593,-1.6633,-1.6695,-1.6779,-1.6797,-1.6814,-1.6818,-1.6821,-1.6828,-1.6876,-1.6884,-1.6795,-1.6795,-1.6795,0,0,-1.6011,-1.6065,-1.6099,-1.6193,-1.6239,-1.6299,-1.6297,-1.636,-1.6406,-1.6432,-1.6511,-1.655,-1.6617,-1.67,-1.6739,-1.6734,-1.6857,-1.6827,-1.6829,-1.6834,-1.6881,-1.689,-1.6897,-1.6798,-1.6798,-1.6797,0,0,-1.6064,-1.6111,-1.6171,-1.6218,-1.6287,-1.6323,-1.6338,-1.6412,-1.6438,-1.6519,-1.6539,-1.6594,-1.6702,-1.675,-1.6788,-1.686,-1.6873,-1.6879,-1.6902,-1.6948,-1.6955,-1.6962,-1.6988,-1.6997,-1.6886,-1.6886,-1.6886,0,-1.6071,-1.6162,-1.6201,-1.6264,-1.6305,-1.6331,-1.6393,-1.6437,-1.6523,-1.6551,-1.6544,-1.668,-1.6727,-1.6822,-1.684,-1.687,-1.6888,-1.6871,-1.6951,-1.6958,-1.6965,-1.699,-1.7,-1.6886,-1.6886,-1.6886,-1.6886,0,-1.6167,-1.6231,-1.6271,-1.6354,-1.64,-1.6462,-1.6511,-1.6553,-1.6573,-1.661,-1.6692,-1.675,-1.6824,-1.6849,-1.6869,-1.6947,-1.6941,-1.6942,-1.6928,-1.6973,-1.6998,-1.7008,-1.6887,-1.6887,-1.6887,-1.6887,0,0,-1.6213,-1.6317,-1.6331,-1.6369,-1.6448,-1.6498,-1.6562,-1.6635,-1.667,-1.6729,-1.6784,-1.6875,-1.6877,-1.692,-1.6946,-1.6987,-1.7042,-1.6983,-1.6985,-1.6992,-1.7131,-1.7131,-1.7141,-1.705,-1.7053,-1.7054,-1.7126,0,-1.6276,-1.6391,-1.6428,-1.6524,-1.6583,-1.6609,-1.6665,-1.672,-1.6756,-1.6812,-1.6853,-1.6917,-1.6913,-1.694,-1.6981,-1.7026,-1.707,-1.7021,-1.7103,-1.7106,-1.7085,-1.7154,-1.7154,-1.7218,-1.7136,-1.7138,-1.7139,0,-1.6366,-1.6426,-1.6527,-1.6599,-1.6626,-1.6675,-1.6745,-1.6798,-1.6862,-1.6885,-1.6934,-1.6958,-1.7026,-1.7009,-1.7105,-1.707,-1.7106,-1.7133,-1.7137,-1.7146,-1.7125,-1.7166,-1.724,-1.725,-1.7154,-1.7153,-1.7152,0,-1.6389,-1.6496,-1.657,-1.6602,-1.6688,-1.6723,-1.676,-1.6822,-1.6863,-1.6925,-1.6952,-1.7021,-1.7059,-1.7112,-1.7153,-1.7136,-1.7246,-1.7231,-1.7268,-1.7267,-1.729,-1.7288,-1.7371,-1.7312,-1.7312,-1.7312,-1.7312,0,-1.6456,-1.6517,-1.6582,-1.6628,-1.6698,-1.674,-1.6808,-1.6847,-1.6902,-1.6957,-1.6984,-1.7034,-1.7086,-1.7144,-1.7177,-1.7252,-1.7269,-1.7291,-1.7299,-1.7288,-1.7286,-1.7313,-1.7309,-1.7315,-1.7314,-1.7314,-1.7313,0,-1.6494,-1.654,-1.6623,-1.6698,-1.6718,-1.6767,-1.6831,-1.6877,-1.6915,-1.6984,-1.7002,-1.7062,-1.7131,-1.7178,-1.7267,-1.729,-1.7371,-1.7378,-1.735,-1.7354,-1.7388,-1.7385,-1.7492,-1.7509,-1.7438,-1.7439,-1.7439,0,-1.6534,-1.6582,-1.6662,-1.67,-1.6738,-1.6799,-1.6841,-1.6885,-1.6929,-1.7005,-1.7042,-1.7113,-1.7173,-1.7283,-1.7335,-1.7403,-1.7413,-1.7446,-1.7423,-1.7412,-1.7414,-1.7411,-1.7416,-1.7449,-1.745,-1.745,-1.745,0,-1.66,-1.6621,-1.668,-1.6749,-1.6799,-1.6854,-1.6911,-1.6941,-1.6995,-1.7042,-1.7113,-1.7159,-1.7251,-1.7322,-1.7395,-1.7435,-1.7452,-1.7457,-1.7469,-1.746,-1.7441,-1.7452,-1.736,-1.7454,-1.7454,-1.7454,-1.7454,-1.7453,-1.6641,-1.6685,-1.6748,-1.6814,-1.6861,-1.6913,-1.696,-1.7004,-1.7064,-1.7141,-1.7164,-1.7238,-1.7302,-1.7402,-1.7443,-1.7503,-1.7499,-1.7517,-1.7522,-1.7525,-1.7526,-1.7431,-1.7516,-1.7516,-1.7516,-1.7516,-1.7516,0,-1.6709,-1.6751,-1.6811,-1.6889,-1.6941,-1.6952,-1.7015,-1.7058,-1.7123,-1.7181,-1.7239,-1.7321,-1.739,-1.7447,-1.7519,-1.7556,-1.7566,-1.7573,-1.7571,-1.758,-1.7524,-1.7507,-1.7564,-1.7564,-1.7564,-1.7564,-1.7564,-1.7564,-1.675,-1.6825,-1.6853,-1.6952,-1.6994,-1.7067,-1.7102,-1.715,-1.7196,-1.7287,-1.7345,-1.7381,-1.7439,-1.7515,-1.7579,-1.7594,-1.762,-1.7626,-1.7643,-1.7589,-1.7584,-1.7579,-1.7562,-1.7631,-1.7631,-1.7694,-1.7694,-1.7695]}]]